Time,TemperatureF,DewpointF,PressureIn,WindDirection,WindDirectionDegrees,WindSpeedMPH,WindSpeedGustMPH,Humidity,HourlyPrecipIn,Conditions,Clouds,dailyrainin,SoftwareType,DateUTC
2013-02-11 00:00:00,35.2,34.5,29.24,SSW,202,4.7,9.2,97,0.04,RA,,1.48,WeatherDisplay:10.37,2013-02-11 06:00:00,
2013-02-11 00:05:00,35.1,34.0,29.24,SSW,202,3.3,3.5,96,0.04,RA,,0.00,WeatherDisplay:10.37,2013-02-11 06:05:00,
2013-02-11 00:10:00,34.9,33.9,29.24,SSE,158,2.9,4.7,96,0.04,RA,,0.00,WeatherDisplay:10.37,2013-02-11 06:10:00,
2013-02-11 00:15:00,34.9,33.9,29.24,WSW,248,4.7,6.9,96,0.04,CLR,,0.00,WeatherDisplay:10.37,2013-02-11 06:15:00,
2013-02-11 00:20:00,34.9,33.6,29.24,SSW,202,5.4,8.1,95,0.04,CLR,,0.00,WeatherDisplay:10.37,2013-02-11 06:20:00,
2013-02-11 00:25:00,34.9,33.3,29.24,West,270,5.6,7.4,94,0.04,CLR,,0.00,WeatherDisplay:10.37,2013-02-11 06:25:00,
2013-02-11 00:30:00,34.5,33.0,29.24,WSW,248,4.5,6.9,94,0.04,CLR,,0.00,WeatherDisplay:10.37,2013-02-11 06:30:00,
2013-02-11 00:35:00,34.5,33.0,29.24,SSW,202,3.8,5.8,94,0.06,RA,,0.02,WeatherDisplay:10.37,2013-02-11 06:35:00,
2013-02-11 00:40:00,34.3,33.1,29.27,SW,225,3.6,3.8,95,0.04,RA,,0.02,WeatherDisplay:10.37,2013-02-11 06:40:00,
2013-02-11 00:45:00,34.3,33.1,29.27,WSW,248,3.8,5.8,95,0.04,,,0.02,WeatherDisplay:10.37,2013-02-11 06:45:00,
2013-02-11 00:50:00,34.2,33.1,29.27,WSW,248,1.6,2.3,96,0.04,CLR,,0.02,WeatherDisplay:10.37,2013-02-11 06:50:00,
2013-02-11 00:55:00,34.2,33.1,29.27,West,270,2.2,3.5,96,0.04,CLR,,0.02,WeatherDisplay:10.37,2013-02-11 06:55:00,
2013-02-11 01:00:00,34.0,33.0,29.27,North,0,4.7,6.0,96,0.02,CLR,,0.02,WeatherDisplay:10.37,2013-02-11 07:00:00,
2013-02-11 01:05:00,34.0,32.7,29.27,SSW,202,4.5,5.8,95,0.02,CLR,,0.02,WeatherDisplay:10.37,2013-02-11 07:05:00,
2013-02-11 01:10:00,33.8,32.5,29.27,SSE,158,4.5,5.8,95,0.05,RA,,0.05,WeatherDisplay:10.37,2013-02-11 07:10:00,
2013-02-11 01:15:00,33.8,32.5,29.27,SSW,202,2.6,4.6,95,0.05,RA,,0.05,WeatherDisplay:10.37,2013-02-11 07:15:00,
2013-02-11 01:20:00,33.6,32.3,29.27,WSW,248,5.6,8.1,95,0.05,,,0.05,WeatherDisplay:10.37,2013-02-11 07:20:00,
2013-02-11 01:25:00,33.6,32.3,29.27,South,180,3.6,6.9,95,0.05,CLR,,0.05,WeatherDisplay:10.37,2013-02-11 07:25:00,
2013-02-11 01:30:00,33.6,32.3,29.27,South,180,3.1,6.0,95,0.05,CLR,,0.05,WeatherDisplay:10.37,2013-02-11 07:30:00,
2013-02-11 01:35:00,33.6,32.3,29.27,SSW,202,3.1,3.8,95,0.03,CLR,,0.05,WeatherDisplay:10.37,2013-02-11 07:35:00,
2013-02-11 01:40:00,33.6,32.3,29.27,SW,225,3.8,3.8,95,0.03,CLR,,0.05,WeatherDisplay:10.37,2013-02-11 07:40:00,
2013-02-11 01:45:00,33.4,32.2,29.27,SSW,202,4.3,7.8,95,0.03,CLR,,0.05,WeatherDisplay:10.37,2013-02-11 07:45:00,
2013-02-11 01:51:00,33.6,32.1,29.27,SW,225,4.0,6.0,94,0.03,CLR,,0.05,WeatherDisplay:10.37,2013-02-11 07:51:00,
2013-02-11 01:56:00,33.4,31.9,29.27,SSW,202,4.5,6.9,94,0.03,CLR,,0.05,WeatherDisplay:10.37,2013-02-11 07:56:00,
2013-02-11 02:00:00,33.3,32.0,29.27,SSW,202,4.3,9.2,95,0.03,CLR,,0.05,WeatherDisplay:10.37,2013-02-11 08:00:00,
2013-02-11 02:06:00,33.3,32.0,29.27,SSW,202,3.1,4.6,95,0.03,CLR,,0.05,WeatherDisplay:10.37,2013-02-11 08:06:00,
2013-02-11 02:11:00,33.3,32.2,29.27,SSW,202,6.4,9.2,96,0.00,CLR,,0.05,WeatherDisplay:10.37,2013-02-11 08:11:00,
2013-02-11 02:16:00,33.3,32.2,29.27,SW,225,2.6,4.6,96,0.00,CLR,,0.05,WeatherDisplay:10.37,2013-02-11 08:16:00,
2013-02-11 02:21:00,33.3,32.2,29.27,SW,225,3.6,8.1,96,0.00,CLR,,0.05,WeatherDisplay:10.37,2013-02-11 08:21:00,
2013-02-11 02:26:00,33.3,32.5,29.27,SSW,202,4.0,4.6,97,0.00,CLR,,0.05,WeatherDisplay:10.37,2013-02-11 08:26:00,
2013-02-11 02:31:00,33.1,32.3,29.27,WNW,292,3.6,5.8,97,0.00,CLR,,0.05,WeatherDisplay:10.37,2013-02-11 08:31:00,
2013-02-11 02:36:00,33.1,32.6,29.27,West,270,2.6,4.6,98,0.00,CLR,,0.05,WeatherDisplay:10.37,2013-02-11 08:36:00,
2013-02-11 02:41:00,33.3,32.8,29.27,SSW,202,3.6,6.9,98,0.00,CLR,,0.05,WeatherDisplay:10.37,2013-02-11 08:41:00,
2013-02-11 02:46:00,33.3,32.8,29.27,SSW,202,4.0,4.0,98,0.00,CLR,,0.05,WeatherDisplay:10.37,2013-02-11 08:46:00,
2013-02-11 02:51:00,33.3,32.8,29.27,WNW,292,2.2,4.6,98,0.00,CLR,,0.05,WeatherDisplay:10.37,2013-02-11 08:51:00,
2013-02-11 02:56:00,33.3,32.8,29.30,WSW,248,3.1,5.8,98,0.00,CLR,,0.05,WeatherDisplay:10.37,2013-02-11 08:56:00,
2013-02-11 03:01:00,33.3,32.8,29.30,NW,315,3.3,3.5,98,0.00,CLR,,0.05,WeatherDisplay:10.37,2013-02-11 09:01:00,
2013-02-11 03:06:00,33.4,32.9,29.30,SSE,158,4.9,6.9,98,0.00,CLR,,0.05,WeatherDisplay:10.37,2013-02-11 09:06:00,
2013-02-11 03:11:00,33.4,32.9,29.30,WSW,248,3.6,6.9,98,0.00,CLR,,0.05,WeatherDisplay:10.37,2013-02-11 09:11:00,
2013-02-11 03:16:00,33.4,32.7,29.30,NNW,338,3.1,4.6,97,0.00,CLR,,0.05,WeatherDisplay:10.37,2013-02-11 09:16:00,
2013-02-11 03:21:00,33.6,32.9,29.30,West,270,4.9,5.8,97,0.00,CLR,,0.05,WeatherDisplay:10.37,2013-02-11 09:21:00,
2013-02-11 03:26:00,33.4,32.7,29.30,WSW,248,4.0,4.6,97,0.00,CLR,,0.05,WeatherDisplay:10.37,2013-02-11 09:26:00,
2013-02-11 03:31:00,33.4,32.7,29.30,WSW,248,3.8,4.6,97,0.00,CLR,,0.05,WeatherDisplay:10.37,2013-02-11 09:31:00,
2013-02-11 03:36:00,33.4,32.7,29.30,SW,225,3.8,5.8,97,0.00,CLR,,0.05,WeatherDisplay:10.37,2013-02-11 09:36:00,
2013-02-11 03:41:00,33.6,32.9,29.30,WNW,292,4.0,6.9,97,0.00,CLR,,0.05,WeatherDisplay:10.37,2013-02-11 09:41:00,
2013-02-11 03:46:00,33.6,32.9,29.30,SE,135,3.8,5.8,97,0.00,CLR,,0.05,WeatherDisplay:10.37,2013-02-11 09:46:00,
2013-02-11 03:51:00,33.6,32.9,29.30,SW,225,3.8,6.9,97,0.00,CLR,,0.05,WeatherDisplay:10.37,2013-02-11 09:51:00,
2013-02-11 03:56:00,33.6,32.9,29.30,NNE,22,3.3,4.6,97,0.00,CLR,,0.05,WeatherDisplay:10.37,2013-02-11 09:56:00,
2013-02-11 04:01:00,33.8,32.8,29.30,South,180,5.6,12.3,96,0.00,CLR,,0.05,WeatherDisplay:10.37,2013-02-11 10:01:00,
2013-02-11 04:06:00,33.8,32.8,29.30,South,180,3.6,10.4,96,0.00,CLR,,0.05,WeatherDisplay:10.37,2013-02-11 10:06:00,
2013-02-11 04:11:00,34.0,33.0,29.33,SW,225,6.0,12.7,96,0.00,CLR,,0.05,WeatherDisplay:10.37,2013-02-11 10:11:00,
2013-02-11 04:16:00,34.0,32.7,29.33,WSW,248,3.6,4.6,95,0.00,CLR,,0.05,WeatherDisplay:10.37,2013-02-11 10:16:00,
2013-02-11 04:21:00,34.0,32.4,29.33,SW,225,6.9,13.2,94,0.00,CLR,,0.05,WeatherDisplay:10.37,2013-02-11 10:21:00,
2013-02-11 04:26:00,34.0,32.2,29.30,West,270,6.0,12.7,93,0.00,CLR,,0.05,WeatherDisplay:10.37,2013-02-11 10:26:00,
2013-02-11 04:31:00,34.0,31.9,29.30,WSW,248,4.5,8.1,92,0.00,CLR,,0.05,WeatherDisplay:10.37,2013-02-11 10:31:00,
2013-02-11 04:36:00,34.0,31.4,29.30,WSW,248,5.4,11.5,90,0.00,CLR,,0.05,WeatherDisplay:10.37,2013-02-11 10:36:00,
2013-02-11 04:41:00,33.8,31.2,29.30,SW,225,5.4,8.1,90,0.00,CLR,,0.05,WeatherDisplay:10.37,2013-02-11 10:41:00,
2013-02-11 04:46:00,33.8,31.5,29.30,WSW,248,6.4,9.2,91,0.00,CLR,,0.05,WeatherDisplay:10.37,2013-02-11 10:46:00,
2013-02-11 04:51:00,33.6,31.3,29.30,NNE,22,5.4,10.4,91,0.00,CLR,,0.05,WeatherDisplay:10.37,2013-02-11 10:51:00,
2013-02-11 04:56:00,33.6,31.5,29.33,SW,225,4.9,6.9,92,0.00,CLR,,0.05,WeatherDisplay:10.37,2013-02-11 10:56:00,
2013-02-11 05:01:00,33.4,31.1,29.33,West,270,5.6,14.7,91,0.00,CLR,,0.05,WeatherDisplay:10.37,2013-02-11 11:01:00,
2013-02-11 05:06:00,33.3,30.9,29.33,WSW,248,4.3,8.7,91,0.00,CLR,,0.05,WeatherDisplay:10.37,2013-02-11 11:06:00,
2013-02-11 05:11:00,33.3,30.9,29.33,West,270,4.9,6.9,91,0.00,CLR,,0.05,WeatherDisplay:10.37,2013-02-11 11:11:00,
2013-02-11 05:16:00,33.3,30.6,29.33,West,270,7.6,17.3,90,0.02,RA,,0.06,WeatherDisplay:10.37,2013-02-11 11:16:00,
2013-02-11 05:21:00,33.3,30.6,29.33,NW,315,4.7,10.0,90,0.02,RA,,0.06,WeatherDisplay:10.37,2013-02-11 11:21:00,
2013-02-11 05:26:00,33.1,30.2,29.33,NW,315,6.9,13.8,89,0.02,,,0.06,WeatherDisplay:10.37,2013-02-11 11:26:00,
2013-02-11 05:31:00,33.1,30.2,29.33,SE,135,6.7,13.8,89,0.02,CLR,,0.06,WeatherDisplay:10.37,2013-02-11 11:31:00,
2013-02-11 05:36:00,33.1,30.5,29.33,NW,315,7.1,13.8,90,0.02,CLR,,0.06,WeatherDisplay:10.37,2013-02-11 11:36:00,
2013-02-11 05:41:00,32.9,30.3,29.36,WNW,292,9.7,19.6,90,0.02,CLR,,0.06,WeatherDisplay:10.37,2013-02-11 11:41:00,
2013-02-11 05:46:00,32.9,30.3,29.36,SW,225,9.8,11.5,90,0.02,CLR,,0.06,WeatherDisplay:10.37,2013-02-11 11:46:00,
2013-02-11 05:51:00,32.9,30.3,29.36,West,270,7.4,18.4,90,0.02,CLR,,0.06,WeatherDisplay:10.37,2013-02-11 11:51:00,
2013-02-11 05:56:00,32.7,30.4,29.36,WSW,248,7.4,10.4,91,0.02,CLR,,0.06,WeatherDisplay:10.37,2013-02-11 11:56:00,
2013-02-11 06:01:00,32.7,30.1,29.36,West,270,4.9,9.2,90,0.02,CLR,,0.06,WeatherDisplay:10.37,2013-02-11 12:01:00,
2013-02-11 06:06:00,32.7,30.1,29.36,WSW,248,6.9,11.5,90,0.02,CLR,,0.06,WeatherDisplay:10.37,2013-02-11 12:06:00,
2013-02-11 06:11:00,32.7,30.1,29.39,WSW,248,6.0,7.4,90,0.02,CLR,,0.06,WeatherDisplay:10.37,2013-02-11 12:11:00,
2013-02-11 06:16:00,32.7,30.1,29.39,WSW,248,5.6,12.7,90,0.00,CLR,,0.06,WeatherDisplay:10.37,2013-02-11 12:16:00,
2013-02-11 06:21:00,32.5,29.9,29.39,WSW,248,6.4,9.2,90,0.00,CLR,,0.06,WeatherDisplay:10.37,2013-02-11 12:21:00,
2013-02-11 06:26:00,32.5,30.2,29.39,WSW,248,5.9,6.2,91,0.00,CLR,,0.06,WeatherDisplay:10.37,2013-02-11 12:26:00,
2013-02-11 06:31:00,32.4,30.0,29.39,WSW,248,6.7,9.2,91,0.00,CLR,,0.06,WeatherDisplay:10.37,2013-02-11 12:31:00,
2013-02-11 06:36:00,32.4,29.8,29.39,WSW,248,5.9,5.9,90,0.00,CLR,,0.06,WeatherDisplay:10.37,2013-02-11 12:36:00,
2013-02-11 06:41:00,32.4,29.8,29.42,WSW,248,4.0,12.7,90,0.00,CLR,,0.06,WeatherDisplay:10.37,2013-02-11 12:41:00,
2013-02-11 06:46:00,32.4,29.5,29.42,WSW,248,7.1,12.7,89,0.00,CLR,,0.06,WeatherDisplay:10.37,2013-02-11 12:46:00,
2013-02-11 06:51:00,32.4,29.2,29.42,WSW,248,6.4,8.1,88,0.00,CLR,,0.06,WeatherDisplay:10.37,2013-02-11 12:51:00,
2013-02-11 06:56:00,32.4,28.9,29.42,WSW,248,5.9,12.5,87,0.00,CLR,,0.06,WeatherDisplay:10.37,2013-02-11 12:56:00,
2013-02-11 07:01:00,32.2,28.7,29.42,WSW,248,6.0,10.4,87,0.00,CLR,,0.06,WeatherDisplay:10.37,2013-02-11 13:01:00,
2013-02-11 07:06:00,32.0,28.8,29.42,WSW,248,6.9,12.7,88,0.00,CLR,,0.06,WeatherDisplay:10.37,2013-02-11 13:06:00,
2013-02-11 07:11:00,31.8,28.9,29.45,WSW,248,6.4,8.1,89,0.00,CLR,,0.06,WeatherDisplay:10.37,2013-02-11 13:11:00,
2013-02-11 07:16:00,31.8,28.9,29.45,WSW,248,7.1,12.7,89,0.00,CLR,,0.06,WeatherDisplay:10.37,2013-02-11 13:16:00,
2013-02-11 07:21:00,32.0,28.6,29.45,WSW,248,10.0,17.5,87,0.00,CLR,,0.06,WeatherDisplay:10.37,2013-02-11 13:21:00,
2013-02-11 07:26:00,32.2,28.2,29.45,WSW,248,9.2,15.0,85,0.00,CLR,,0.06,WeatherDisplay:10.37,2013-02-11 13:26:00,
2013-02-11 07:31:00,32.2,27.6,29.45,WSW,248,9.7,19.2,83,0.00,CLR,,0.06,WeatherDisplay:10.37,2013-02-11 13:31:00,
2013-02-11 07:36:00,32.2,27.6,29.45,WSW,248,4.9,8.5,83,0.00,CLR,,0.06,WeatherDisplay:10.37,2013-02-11 13:36:00,
2013-02-11 07:41:00,32.2,27.9,29.48,WSW,248,10.2,17.3,84,0.00,CLR,,0.06,WeatherDisplay:10.37,2013-02-11 13:41:00,
2013-02-11 07:46:00,32.2,27.6,29.48,WSW,248,9.4,12.7,83,0.00,CLR,,0.06,WeatherDisplay:10.37,2013-02-11 13:46:00,
2013-02-11 07:51:00,32.2,27.6,29.48,WSW,248,10.0,16.1,83,0.00,CLR,,0.06,WeatherDisplay:10.37,2013-02-11 13:51:00,
2013-02-11 07:56:00,32.0,27.4,29.48,WSW,248,5.6,12.5,83,0.00,CLR,,0.06,WeatherDisplay:10.37,2013-02-11 13:56:00,
2013-02-11 08:01:00,31.8,27.2,29.48,WSW,248,8.1,15.0,83,0.00,CLR,,0.06,WeatherDisplay:10.37,2013-02-11 14:01:00,
2013-02-11 08:06:00,31.8,27.5,29.48,WSW,248,9.4,15.0,84,0.00,CLR,,0.06,WeatherDisplay:10.37,2013-02-11 14:06:00,
2013-02-11 08:11:00,31.6,27.4,29.48,WSW,248,10.7,13.8,84,0.00,CLR,,0.06,WeatherDisplay:10.37,2013-02-11 14:11:00,
2013-02-11 08:16:00,31.6,27.4,29.48,WSW,248,6.4,8.1,84,0.00,CLR,,0.06,WeatherDisplay:10.37,2013-02-11 14:16:00,
2013-02-11 08:21:00,31.5,27.2,29.48,WSW,248,10.9,15.0,84,0.00,CLR,,0.06,WeatherDisplay:10.37,2013-02-11 14:21:00,
2013-02-11 08:26:00,31.5,27.5,29.48,WSW,248,7.1,9.2,85,0.00,CLR,,0.06,WeatherDisplay:10.37,2013-02-11 14:26:00,
2013-02-11 08:31:00,31.5,27.5,29.48,WSW,248,7.8,12.7,85,0.00,CLR,,0.06,WeatherDisplay:10.37,2013-02-11 14:31:00,
2013-02-11 08:36:00,31.5,27.2,29.48,WSW,248,10.0,11.5,84,0.00,CLR,,0.06,WeatherDisplay:10.37,2013-02-11 14:36:00,
2013-02-11 08:41:00,31.5,27.2,29.51,WSW,248,9.2,11.5,84,0.00,CLR,,0.06,WeatherDisplay:10.37,2013-02-11 14:41:00,
2013-02-11 08:46:00,31.5,27.2,29.51,WSW,248,6.7,15.2,84,0.00,CLR,,0.06,WeatherDisplay:10.37,2013-02-11 14:46:00,
2013-02-11 08:51:00,31.3,27.0,29.51,WSW,248,12.3,17.3,84,0.00,CLR,,0.06,WeatherDisplay:10.37,2013-02-11 14:51:00,
2013-02-11 08:56:00,31.5,26.9,29.51,WSW,248,5.9,14.5,83,0.00,CLR,,0.06,WeatherDisplay:10.37,2013-02-11 14:56:00,
2013-02-11 09:01:00,31.5,26.6,29.51,WSW,248,10.0,17.3,82,0.00,CLR,,0.06,WeatherDisplay:10.37,2013-02-11 15:01:00,
2013-02-11 09:06:00,31.5,26.6,29.51,WSW,248,7.4,10.4,82,0.00,CLR,,0.06,WeatherDisplay:10.37,2013-02-11 15:06:00,
2013-02-11 09:11:00,31.3,26.1,29.54,WSW,248,10.2,16.1,81,0.00,CLR,,0.06,WeatherDisplay:10.37,2013-02-11 15:11:00,
2013-02-11 09:16:00,31.5,26.6,29.54,WSW,248,3.1,9.7,82,0.00,CLR,,0.06,WeatherDisplay:10.37,2013-02-11 15:16:00,
2013-02-11 09:21:00,31.3,26.1,29.54,WSW,248,6.7,15.0,81,0.00,CLR,,0.06,WeatherDisplay:10.37,2013-02-11 15:21:00,
2013-02-11 09:26:00,31.3,26.1,29.51,WSW,248,8.7,10.4,81,0.00,CLR,,0.06,WeatherDisplay:10.37,2013-02-11 15:26:00,
2013-02-11 09:31:00,31.1,25.7,29.51,WSW,248,7.6,10.4,80,0.00,CLR,,0.06,WeatherDisplay:10.37,2013-02-11 15:31:00,
2013-02-11 09:36:00,31.1,25.7,29.51,WSW,248,12.8,19.6,80,0.00,CLR,,0.06,WeatherDisplay:10.37,2013-02-11 15:36:00,
2013-02-11 09:42:00,31.1,25.7,29.57,WSW,248,10.2,15.0,80,0.00,CLR,,0.06,WeatherDisplay:10.37,2013-02-11 15:42:00,
2013-02-11 09:47:00,31.1,25.7,29.57,WSW,248,7.8,10.4,80,0.00,CLR,,0.06,WeatherDisplay:10.37,2013-02-11 15:47:00,
2013-02-11 09:52:00,30.9,25.5,29.57,WSW,248,9.2,15.0,80,0.00,CLR,,0.06,WeatherDisplay:10.37,2013-02-11 15:52:00,
2013-02-11 09:57:00,30.9,25.2,29.57,WSW,248,9.7,15.2,79,0.00,CLR,,0.06,WeatherDisplay:10.37,2013-02-11 15:57:00,
2013-02-11 10:02:00,30.7,24.7,29.57,WSW,248,8.1,17.5,78,0.00,CLR,,0.06,WeatherDisplay:10.37,2013-02-11 16:02:00,
2013-02-11 10:07:00,30.9,24.9,29.57,WSW,248,5.9,9.4,78,0.00,CLR,,0.06,WeatherDisplay:10.37,2013-02-11 16:07:00,
2013-02-11 10:12:00,30.9,24.6,29.59,WSW,248,7.1,8.1,77,0.00,CLR,,0.06,WeatherDisplay:10.37,2013-02-11 16:12:00,
2013-02-11 10:17:00,30.7,24.1,29.59,WSW,248,6.7,13.8,76,0.00,CLR,,0.06,WeatherDisplay:10.37,2013-02-11 16:17:00,
2013-02-11 10:22:00,30.9,23.9,29.59,WSW,248,7.1,10.4,75,0.00,CLR,,0.06,WeatherDisplay:10.37,2013-02-11 16:22:00,
2013-02-11 10:27:00,30.7,23.1,29.59,WSW,248,7.8,15.2,73,0.00,CLR,,0.06,WeatherDisplay:10.37,2013-02-11 16:27:00,
2013-02-11 10:32:00,30.6,22.9,29.59,WSW,248,9.4,13.8,73,0.00,CLR,,0.06,WeatherDisplay:10.37,2013-02-11 16:32:00,
2013-02-11 10:37:00,30.7,23.1,29.59,WSW,248,7.1,15.2,73,0.00,CLR,,0.06,WeatherDisplay:10.37,2013-02-11 16:37:00,
2013-02-11 10:42:00,30.6,22.9,29.59,WSW,248,9.7,15.0,73,0.00,CLR,,0.06,WeatherDisplay:10.37,2013-02-11 16:42:00,
2013-02-11 10:47:00,30.4,22.8,29.59,WSW,248,10.7,17.3,73,0.00,CLR,,0.06,WeatherDisplay:10.37,2013-02-11 16:47:00,
2013-02-11 10:52:00,30.2,22.9,29.59,WSW,248,11.8,15.0,74,0.00,CLR,,0.06,WeatherDisplay:10.37,2013-02-11 16:52:00,
2013-02-11 10:57:00,30.0,22.4,29.62,WSW,248,10.0,12.7,73,0.00,CLR,,0.06,WeatherDisplay:10.37,2013-02-11 16:57:00,
2013-02-11 11:02:00,30.0,22.1,29.62,WSW,248,8.5,8.5,72,0.00,CLR,,0.06,WeatherDisplay:10.37,2013-02-11 17:02:00,
2013-02-11 11:07:00,30.2,22.3,29.62,WSW,248,7.6,10.4,72,0.00,CLR,,0.06,WeatherDisplay:10.37,2013-02-11 17:07:00,
2013-02-11 11:12:00,30.0,22.1,29.65,WSW,248,10.7,10.7,72,0.00,CLR,,0.06,WeatherDisplay:10.37,2013-02-11 17:12:00,
2013-02-11 11:17:00,30.0,21.8,29.65,WSW,248,9.8,10.4,71,0.00,CLR,,0.06,WeatherDisplay:10.37,2013-02-11 17:17:00,
2013-02-11 11:22:00,30.2,21.9,29.65,WSW,248,7.6,15.0,71,0.00,CLR,,0.06,WeatherDisplay:10.37,2013-02-11 17:22:00,
2013-02-11 11:27:00,30.2,21.6,29.65,WSW,248,6.9,16.1,70,0.00,CLR,,0.06,WeatherDisplay:10.37,2013-02-11 17:27:00,
2013-02-11 11:32:00,30.2,21.2,29.65,WSW,248,8.7,19.6,69,0.00,CLR,,0.06,WeatherDisplay:10.37,2013-02-11 17:32:00,
2013-02-11 11:37:00,30.2,20.9,29.65,WSW,248,13.5,13.5,68,0.00,CLR,,0.06,WeatherDisplay:10.37,2013-02-11 17:37:00,
2013-02-11 11:42:00,30.2,20.9,29.62,WSW,248,10.5,17.3,68,0.00,CLR,,0.06,WeatherDisplay:10.37,2013-02-11 17:42:00,
2013-02-11 11:47:00,30.2,20.6,29.62,WSW,248,7.6,17.3,67,0.00,CLR,,0.06,WeatherDisplay:10.37,2013-02-11 17:47:00,
2013-02-11 11:52:00,30.0,20.4,29.62,WSW,248,12.8,17.3,67,0.00,CLR,,0.06,WeatherDisplay:10.37,2013-02-11 17:52:00,
2013-02-11 11:57:00,30.0,20.0,29.65,WSW,248,8.1,12.7,66,0.00,CLR,,0.06,WeatherDisplay:10.37,2013-02-11 17:57:00,
2013-02-11 12:02:00,30.2,20.2,29.65,WSW,248,9.0,10.4,66,0.00,CLR,,0.06,WeatherDisplay:10.37,2013-02-11 18:02:00,
2013-02-11 12:07:00,30.0,19.3,29.65,WSW,248,12.1,17.5,64,0.00,CLR,,0.06,WeatherDisplay:10.37,2013-02-11 18:07:00,
2013-02-11 12:12:00,29.8,19.1,29.65,WSW,248,8.7,15.0,64,0.00,CLR,,0.06,WeatherDisplay:10.37,2013-02-11 18:12:00,
2013-02-11 12:17:00,29.7,19.0,29.65,WSW,248,13.5,15.0,64,0.00,CLR,,0.06,WeatherDisplay:10.37,2013-02-11 18:17:00,
2013-02-11 12:22:00,29.7,19.0,29.65,WSW,248,12.1,23.2,64,0.00,CLR,,0.06,WeatherDisplay:10.37,2013-02-11 18:22:00,
2013-02-11 12:27:00,29.5,19.2,29.65,WSW,248,8.7,13.2,65,0.00,CLR,,0.06,WeatherDisplay:10.37,2013-02-11 18:27:00,
2013-02-11 12:32:00,29.7,19.7,29.65,WSW,248,5.9,11.5,66,0.00,CLR,,0.06,WeatherDisplay:10.37,2013-02-11 18:32:00,
2013-02-11 12:37:00,29.1,18.8,29.65,WSW,248,9.0,15.2,65,0.00,CLR,,0.06,WeatherDisplay:10.37,2013-02-11 18:37:00,
2013-02-11 12:42:00,29.3,19.0,29.65,WSW,248,8.5,12.5,65,0.00,CLR,,0.06,WeatherDisplay:10.37,2013-02-11 18:42:00,
2013-02-11 12:47:00,29.1,18.5,29.65,WSW,248,10.0,12.7,64,0.00,CLR,,0.06,WeatherDisplay:10.37,2013-02-11 18:47:00,
2013-02-11 12:52:00,29.5,18.8,29.65,WSW,248,7.1,17.3,64,0.00,CLR,,0.06,WeatherDisplay:10.37,2013-02-11 18:52:00,
2013-02-11 12:57:00,29.5,18.8,29.68,WSW,248,6.9,10.7,64,0.00,CLR,,0.06,WeatherDisplay:10.37,2013-02-11 18:57:00,
2013-02-11 13:02:00,29.8,18.8,29.68,WSW,248,9.0,9.0,63,0.00,CLR,,0.06,WeatherDisplay:10.37,2013-02-11 19:02:00,
2013-02-11 13:07:00,29.7,18.2,29.68,WSW,248,9.2,13.8,62,0.00,CLR,,0.06,WeatherDisplay:10.37,2013-02-11 19:07:00,
2013-02-11 13:12:00,29.7,18.2,29.68,WSW,248,4.9,16.1,62,0.00,CLR,,0.06,WeatherDisplay:10.37,2013-02-11 19:12:00,
2013-02-11 13:17:00,29.5,17.7,29.68,WSW,248,9.8,17.3,61,0.00,CLR,,0.06,WeatherDisplay:10.37,2013-02-11 19:17:00,
2013-02-11 13:22:00,29.1,17.3,29.68,WSW,248,9.2,12.7,61,0.00,CLR,,0.06,WeatherDisplay:10.37,2013-02-11 19:22:00,
2013-02-11 13:27:00,28.9,17.2,29.71,WSW,248,10.7,13.8,61,0.00,CLR,,0.06,WeatherDisplay:10.37,2013-02-11 19:27:00,
2013-02-11 13:32:00,28.9,17.2,29.71,WSW,248,10.9,13.8,61,0.00,CLR,,0.06,WeatherDisplay:10.37,2013-02-11 19:32:00,
2013-02-11 13:37:00,28.8,17.0,29.71,WSW,248,10.5,10.5,61,0.00,CLR,,0.06,WeatherDisplay:10.37,2013-02-11 19:37:00,
2013-02-11 13:42:00,28.8,16.6,29.71,WSW,248,8.7,10.4,60,0.00,CLR,,0.06,WeatherDisplay:10.37,2013-02-11 19:42:00,
2013-02-11 13:47:00,28.7,16.9,29.71,WSW,248,8.0,20.0,61,0.00,CLR,,0.06,WeatherDisplay:10.37,2013-02-11 19:47:00,
2013-02-11 13:52:00,28.8,17.4,29.71,WSW,248,9.0,14.7,62,0.00,CLR,,0.06,WeatherDisplay:10.37,2013-02-11 19:52:00,
2013-02-11 13:57:00,28.9,17.9,29.68,WSW,248,6.0,8.1,63,0.00,CLR,,0.06,WeatherDisplay:10.37,2013-02-11 19:57:00,
2013-02-11 14:02:00,28.9,17.9,29.68,WSW,248,10.9,17.3,63,0.00,CLR,,0.06,WeatherDisplay:10.37,2013-02-11 20:02:00,
2013-02-11 14:07:00,29.5,18.1,29.68,WSW,248,6.9,9.2,62,0.00,CLR,,0.06,WeatherDisplay:10.37,2013-02-11 20:07:00,
2013-02-11 14:12:00,29.2,17.4,29.71,WSW,248,7.0,15.0,61,0.00,CLR,,0.06,WeatherDisplay:10.37,2013-02-11 20:12:00,
2013-02-11 14:17:00,28.9,16.8,29.71,WSW,248,7.1,10.4,60,0.00,CLR,,0.06,WeatherDisplay:10.37,2013-02-11 20:17:00,
2013-02-11 14:22:00,28.6,16.4,29.71,WSW,248,10.5,12.7,60,0.00,CLR,,0.06,WeatherDisplay:10.37,2013-02-11 20:22:00,
2013-02-11 14:27:00,28.6,16.8,29.71,WSW,248,4.5,8.1,61,0.00,CLR,,0.06,WeatherDisplay:10.37,2013-02-11 20:27:00,
2013-02-11 14:32:00,28.2,16.1,29.71,WSW,248,11.4,24.2,60,0.00,CLR,,0.06,WeatherDisplay:10.37,2013-02-11 20:32:00,
2013-02-11 14:37:00,28.0,16.3,29.71,WSW,248,7.6,13.8,61,0.00,CLR,,0.06,WeatherDisplay:10.37,2013-02-11 20:37:00,
2013-02-11 14:42:00,28.2,16.9,29.74,WSW,248,9.0,15.0,62,0.00,CLR,,0.06,WeatherDisplay:10.37,2013-02-11 20:42:00,
2013-02-11 14:47:00,28.2,16.5,29.74,WSW,248,9.2,12.7,61,0.00,CLR,,0.06,WeatherDisplay:10.37,2013-02-11 20:47:00,
2013-02-11 14:52:00,28.2,16.1,29.74,WSW,248,8.5,13.8,60,0.00,CLR,,0.06,WeatherDisplay:10.37,2013-02-11 20:52:00,
2013-02-11 14:57:00,28.0,15.9,29.77,WSW,248,9.4,12.8,60,0.00,CLR,,0.06,WeatherDisplay:10.37,2013-02-11 20:57:00,
2013-02-11 15:02:00,27.9,16.1,29.77,WSW,248,9.8,12.7,61,0.00,CLR,,0.06,WeatherDisplay:10.37,2013-02-11 21:02:00,
2013-02-11 15:07:00,27.9,16.5,29.77,WSW,248,7.4,9.2,62,0.00,CLR,,0.06,WeatherDisplay:10.37,2013-02-11 21:07:00,
2013-02-11 15:12:00,27.9,16.5,29.77,WSW,248,9.8,13.8,62,0.00,CLR,,0.06,WeatherDisplay:10.37,2013-02-11 21:12:00,
2013-02-11 15:17:00,27.7,16.3,29.77,WSW,248,9.7,19.0,62,0.00,CLR,,0.06,WeatherDisplay:10.37,2013-02-11 21:17:00,
2013-02-11 15:22:00,27.7,16.3,29.77,WSW,248,9.2,15.0,62,0.00,CLR,,0.06,WeatherDisplay:10.37,2013-02-11 21:22:00,
2013-02-11 15:27:00,27.9,16.5,29.74,WSW,248,7.4,8.1,62,0.00,CLR,,0.06,WeatherDisplay:10.37,2013-02-11 21:27:00,
2013-02-11 15:32:00,27.9,16.9,29.74,WSW,248,5.6,7.1,63,0.00,CLR,,0.06,WeatherDisplay:10.37,2013-02-11 21:32:00,
2013-02-11 15:37:00,27.9,16.9,29.74,WSW,248,7.4,10.4,63,0.00,CLR,,0.06,WeatherDisplay:10.37,2013-02-11 21:37:00,
2013-02-11 15:42:00,27.7,17.1,29.77,WSW,248,6.4,6.9,64,0.00,CLR,,0.06,WeatherDisplay:10.37,2013-02-11 21:42:00,
2013-02-11 15:47:00,27.7,17.1,29.77,WSW,248,6.4,12.7,64,0.00,CLR,,0.06,WeatherDisplay:10.37,2013-02-11 21:47:00,
2013-02-11 15:52:00,27.9,17.6,29.77,WSW,248,3.8,4.9,65,0.00,CLR,,0.06,WeatherDisplay:10.37,2013-02-11 21:52:00,
2013-02-11 15:57:00,27.7,17.8,29.80,WSW,248,5.9,8.1,66,0.00,CLR,,0.06,WeatherDisplay:10.37,2013-02-11 21:57:00,
2013-02-11 16:02:00,27.3,18.1,29.80,WSW,248,6.2,10.4,68,0.00,CLR,,0.06,WeatherDisplay:10.37,2013-02-11 22:02:00,
2013-02-11 16:07:00,27.5,18.7,29.80,WSW,248,4.7,5.8,69,0.00,CLR,,0.06,WeatherDisplay:10.37,2013-02-11 22:07:00,
2013-02-11 16:12:00,27.3,18.5,29.80,WSW,248,6.4,8.5,69,0.00,CLR,,0.06,WeatherDisplay:10.37,2013-02-11 22:12:00,
2013-02-11 16:17:00,27.1,18.3,29.80,WSW,248,5.6,10.4,69,0.00,CLR,,0.06,WeatherDisplay:10.37,2013-02-11 22:17:00,
2013-02-11 16:22:00,27.0,18.1,29.80,WSW,248,6.2,9.2,69,0.00,CLR,,0.06,WeatherDisplay:10.37,2013-02-11 22:22:00,
2013-02-11 16:27:00,27.0,18.8,29.80,WSW,248,6.2,8.1,71,0.00,CLR,,0.06,WeatherDisplay:10.37,2013-02-11 22:27:00,
2013-02-11 16:32:00,26.8,18.6,29.80,WSW,248,4.7,8.1,71,0.00,CLR,,0.06,WeatherDisplay:10.37,2013-02-11 22:32:00,
2013-02-11 16:37:00,26.8,18.0,29.80,WSW,248,7.4,11.4,69,0.00,CLR,,0.06,WeatherDisplay:10.37,2013-02-11 22:37:00,
2013-02-11 16:42:00,26.6,17.5,29.80,WSW,248,6.9,10.4,68,0.00,CLR,,0.06,WeatherDisplay:10.37,2013-02-11 22:42:00,
2013-02-11 16:47:00,26.6,17.1,29.80,WSW,248,7.6,11.5,67,0.00,CLR,,0.06,WeatherDisplay:10.37,2013-02-11 22:47:00,
2013-02-11 16:52:00,26.4,16.9,29.80,WSW,248,5.4,8.1,67,0.00,CLR,,0.06,WeatherDisplay:10.37,2013-02-11 22:52:00,
2013-02-11 16:57:00,26.4,17.3,29.83,WSW,248,4.5,8.5,68,0.00,CLR,,0.06,WeatherDisplay:10.37,2013-02-11 22:57:00,
2013-02-11 17:02:00,26.2,17.4,29.83,WSW,248,4.9,8.1,69,0.00,CLR,,0.06,WeatherDisplay:10.37,2013-02-11 23:02:00,
2013-02-11 17:07:00,26.2,17.4,29.83,WSW,248,7.4,8.1,69,0.00,CLR,,0.06,WeatherDisplay:10.37,2013-02-11 23:07:00,
2013-02-11 17:12:00,26.1,17.3,29.83,WSW,248,7.1,11.2,69,0.00,CLR,,0.06,WeatherDisplay:10.37,2013-02-11 23:12:00,
2013-02-11 17:17:00,26.1,16.9,29.83,WSW,248,6.0,10.4,68,0.00,CLR,,0.06,WeatherDisplay:10.37,2013-02-11 23:17:00,
2013-02-11 17:22:00,26.1,16.9,29.83,WSW,248,9.7,12.7,68,0.00,CLR,,0.06,WeatherDisplay:10.37,2013-02-11 23:22:00,
2013-02-11 17:27:00,25.9,16.4,29.83,WSW,248,8.7,11.5,67,0.00,CLR,,0.06,WeatherDisplay:10.37,2013-02-11 23:27:00,
2013-02-11 17:32:00,25.9,16.4,29.83,WSW,248,8.1,15.4,67,0.00,CLR,,0.06,WeatherDisplay:10.37,2013-02-11 23:32:00,
2013-02-11 17:37:00,25.9,16.4,29.83,WSW,248,6.7,9.8,67,0.00,CLR,,0.06,WeatherDisplay:10.37,2013-02-11 23:37:00,
2013-02-11 17:42:00,25.9,16.1,29.83,WSW,248,11.2,12.7,66,0.00,CLR,,0.06,WeatherDisplay:10.37,2013-02-11 23:42:00,
2013-02-11 17:47:00,25.9,16.1,29.83,WSW,248,4.9,13.0,66,0.00,CLR,,0.06,WeatherDisplay:10.37,2013-02-11 23:47:00,
2013-02-11 17:52:00,25.9,15.7,29.83,WSW,248,6.0,10.2,65,0.00,CLR,,0.06,WeatherDisplay:10.37,2013-02-11 23:52:00,
2013-02-11 17:57:00,25.9,15.7,29.83,WSW,248,3.3,5.8,65,0.00,CLR,,0.06,WeatherDisplay:10.37,2013-02-11 23:57:00,
2013-02-11 18:02:00,25.9,15.4,29.83,WSW,248,8.1,9.2,64,0.00,CLR,,0.06,WeatherDisplay:10.37,2013-02-12 00:02:00,
2013-02-11 18:08:00,25.9,15.0,29.83,WSW,248,7.8,14.0,63,0.00,CLR,,0.06,WeatherDisplay:10.37,2013-02-12 00:08:00,
2013-02-11 18:13:00,25.9,15.0,29.83,WSW,248,6.0,10.4,63,0.00,CLR,,0.06,WeatherDisplay:10.37,2013-02-12 00:13:00,
2013-02-11 18:18:00,25.9,15.0,29.83,WSW,248,6.9,8.1,63,0.00,CLR,,0.06,WeatherDisplay:10.37,2013-02-12 00:18:00,
2013-02-11 18:23:00,25.7,14.8,29.83,WSW,248,7.8,16.1,63,0.00,CLR,,0.06,WeatherDisplay:10.37,2013-02-12 00:23:00,
2013-02-11 18:28:00,25.7,14.8,29.86,WSW,248,4.3,8.1,63,0.00,CLR,,0.06,WeatherDisplay:10.37,2013-02-12 00:28:00,
2013-02-11 18:33:00,25.7,14.8,29.86,WSW,248,3.8,8.1,63,0.00,CLR,,0.06,WeatherDisplay:10.37,2013-02-12 00:33:00,
2013-02-11 18:38:00,25.7,14.8,29.86,WSW,248,4.0,9.7,63,0.00,CLR,,0.06,WeatherDisplay:10.37,2013-02-12 00:38:00,
2013-02-11 18:43:00,25.5,14.7,29.89,WSW,248,8.1,10.4,63,0.00,CLR,,0.06,WeatherDisplay:10.37,2013-02-12 00:43:00,
2013-02-11 18:48:00,25.5,15.0,29.89,WSW,248,4.9,6.9,64,0.00,CLR,,0.06,WeatherDisplay:10.37,2013-02-12 00:48:00,
2013-02-11 18:53:00,25.5,15.0,29.89,WSW,248,7.4,12.7,64,0.00,CLR,,0.06,WeatherDisplay:10.37,2013-02-12 00:53:00,
2013-02-11 18:58:00,25.5,14.7,29.89,WSW,248,8.7,12.7,63,0.00,CLR,,0.06,WeatherDisplay:10.37,2013-02-12 00:58:00,
2013-02-11 19:03:00,25.5,14.7,29.89,WSW,248,7.4,10.4,63,0.00,CLR,,0.06,WeatherDisplay:10.37,2013-02-12 01:03:00,
2013-02-11 19:08:00,25.3,14.9,29.89,WSW,248,6.2,6.4,64,0.00,CLR,,0.06,WeatherDisplay:10.37,2013-02-12 01:08:00,
2013-02-11 19:13:00,25.3,14.5,29.89,WSW,248,9.2,12.8,63,0.00,CLR,,0.06,WeatherDisplay:10.37,2013-02-12 01:13:00,
2013-02-11 19:18:00,25.3,14.9,29.89,WSW,248,9.2,13.8,64,0.00,CLR,,0.06,WeatherDisplay:10.37,2013-02-12 01:18:00,
2013-02-11 19:23:00,25.3,14.5,29.89,WSW,248,10.2,17.3,63,0.00,CLR,,0.06,WeatherDisplay:10.37,2013-02-12 01:23:00,
2013-02-11 19:28:00,25.3,14.9,29.89,WSW,248,6.4,10.4,64,0.00,CLR,,0.06,WeatherDisplay:10.37,2013-02-12 01:28:00,
2013-02-11 19:33:00,25.3,14.9,29.89,WSW,248,6.0,9.2,64,0.00,CLR,,0.06,WeatherDisplay:10.37,2013-02-12 01:33:00,
2013-02-11 19:38:00,25.2,14.7,29.89,WSW,248,6.2,13.8,64,0.00,CLR,,0.06,WeatherDisplay:10.37,2013-02-12 01:38:00,
2013-02-11 19:43:00,25.2,14.7,29.89,WSW,248,7.6,10.0,64,0.00,CLR,,0.06,WeatherDisplay:10.37,2013-02-12 01:43:00,
2013-02-11 19:48:00,25.0,14.2,29.89,WSW,248,6.2,9.2,63,0.00,CLR,,0.06,WeatherDisplay:10.37,2013-02-12 01:48:00,
2013-02-11 19:53:00,25.0,14.2,29.89,WSW,248,5.6,12.8,63,0.00,CLR,,0.06,WeatherDisplay:10.37,2013-02-12 01:53:00,
2013-02-11 19:58:00,25.0,14.5,29.89,WSW,248,6.2,10.4,64,0.00,CLR,,0.06,WeatherDisplay:10.37,2013-02-12 01:58:00,
2013-02-11 20:03:00,24.8,14.3,29.89,WSW,248,7.8,11.5,64,0.00,CLR,,0.06,WeatherDisplay:10.37,2013-02-12 02:03:00,
2013-02-11 20:08:00,24.8,14.3,29.89,WSW,248,6.0,9.2,64,0.00,CLR,,0.06,WeatherDisplay:10.37,2013-02-12 02:08:00,
2013-02-11 20:13:00,24.8,14.3,29.89,WSW,248,5.6,13.8,64,0.00,CLR,,0.06,WeatherDisplay:10.37,2013-02-12 02:13:00,
2013-02-11 20:18:00,24.6,14.2,29.89,WSW,248,3.3,8.1,64,0.00,CLR,,0.06,WeatherDisplay:10.37,2013-02-12 02:18:00,
2013-02-11 20:23:00,24.6,14.2,29.89,WSW,248,10.2,16.1,64,0.00,CLR,,0.06,WeatherDisplay:10.37,2013-02-12 02:23:00,
2013-02-11 20:28:00,24.6,14.2,29.92,WSW,248,8.5,10.4,64,0.00,CLR,,0.06,WeatherDisplay:10.37,2013-02-12 02:28:00,
2013-02-11 20:33:00,24.6,14.2,29.92,WSW,248,4.9,7.4,64,0.00,CLR,,0.06,WeatherDisplay:10.37,2013-02-12 02:33:00,
2013-02-11 20:38:00,24.4,14.0,29.92,WSW,248,5.6,6.9,64,0.00,CLR,,0.06,WeatherDisplay:10.37,2013-02-12 02:38:00,
2013-02-11 20:43:00,24.4,14.0,29.92,WSW,248,4.9,8.1,64,0.00,CLR,,0.06,WeatherDisplay:10.37,2013-02-12 02:43:00,
2013-02-11 20:48:00,24.4,14.0,29.92,WSW,248,7.6,8.1,64,0.00,CLR,,0.06,WeatherDisplay:10.37,2013-02-12 02:48:00,
2013-02-11 20:53:00,24.4,14.0,29.92,WSW,248,6.9,9.2,64,0.00,CLR,,0.06,WeatherDisplay:10.37,2013-02-12 02:53:00,
2013-02-11 20:58:00,24.3,14.2,29.92,WSW,248,6.4,10.4,65,0.00,CLR,,0.06,WeatherDisplay:10.37,2013-02-12 02:58:00,
2013-02-11 21:03:00,24.3,14.2,29.92,WSW,248,6.7,10.4,65,0.00,CLR,,0.06,WeatherDisplay:10.37,2013-02-12 03:03:00,
2013-02-11 21:08:00,24.3,14.2,29.92,WSW,248,5.4,8.1,65,0.00,CLR,,0.06,WeatherDisplay:10.37,2013-02-12 03:08:00,
2013-02-11 21:13:00,24.3,14.2,29.92,WSW,248,4.7,8.1,65,0.00,CLR,,0.06,WeatherDisplay:10.37,2013-02-12 03:13:00,
2013-02-11 21:18:00,24.1,14.0,29.92,WSW,248,6.4,8.1,65,0.00,CLR,,0.06,WeatherDisplay:10.37,2013-02-12 03:18:00,
2013-02-11 21:23:00,24.1,13.7,29.92,WSW,248,9.8,17.3,64,0.00,CLR,,0.06,WeatherDisplay:10.37,2013-02-12 03:23:00,
2013-02-11 21:28:00,24.1,13.7,29.95,WSW,248,7.1,9.2,64,0.00,CLR,,0.06,WeatherDisplay:10.37,2013-02-12 03:28:00,
2013-02-11 21:33:00,23.9,13.5,29.95,WSW,248,6.7,9.2,64,0.00,CLR,,0.06,WeatherDisplay:10.37,2013-02-12 03:33:00,
2013-02-11 21:38:00,23.9,13.5,29.95,WSW,248,8.1,15.0,64,0.00,CLR,,0.06,WeatherDisplay:10.37,2013-02-12 03:38:00,
2013-02-11 21:43:00,23.9,13.5,29.95,WSW,248,4.5,10.4,64,0.00,CLR,,0.06,WeatherDisplay:10.37,2013-02-12 03:43:00,
2013-02-11 21:48:00,23.7,13.3,29.95,WSW,248,5.9,9.2,64,0.00,CLR,,0.06,WeatherDisplay:10.37,2013-02-12 03:48:00,
2013-02-11 21:53:00,23.7,13.3,29.95,WSW,248,7.6,9.2,64,0.00,CLR,,0.06,WeatherDisplay:10.37,2013-02-12 03:53:00,
2013-02-11 21:58:00,23.7,13.7,29.95,WSW,248,7.4,10.4,65,0.00,CLR,,0.06,WeatherDisplay:10.37,2013-02-12 03:58:00,
2013-02-11 22:03:00,23.5,13.5,29.95,WSW,248,4.7,9.2,65,0.00,CLR,,0.06,WeatherDisplay:10.37,2013-02-12 04:03:00,
2013-02-11 22:08:00,23.5,14.2,29.95,WSW,248,5.6,9.2,67,0.00,CLR,,0.06,WeatherDisplay:10.37,2013-02-12 04:08:00,
2013-02-11 22:13:00,23.5,14.5,29.95,WSW,248,6.2,9.2,68,0.00,CLR,,0.06,WeatherDisplay:10.37,2013-02-12 04:13:00,
2013-02-11 22:18:00,23.5,14.2,29.95,WSW,248,6.0,11.5,67,0.00,CLR,,0.06,WeatherDisplay:10.37,2013-02-12 04:18:00,
2013-02-11 22:23:00,23.5,14.2,29.95,WSW,248,7.1,18.1,67,0.00,CLR,,0.06,WeatherDisplay:10.37,2013-02-12 04:23:00,
2013-02-11 22:28:00,23.4,13.7,29.95,WSW,248,5.6,5.8,66,0.00,CLR,,0.06,WeatherDisplay:10.37,2013-02-12 04:28:00,
2013-02-11 22:33:00,23.4,13.7,29.95,WSW,248,9.7,10.4,66,0.00,CLR,,0.06,WeatherDisplay:10.37,2013-02-12 04:33:00,
2013-02-11 22:38:00,23.4,13.7,29.95,WSW,248,8.1,10.4,66,0.00,CLR,,0.06,WeatherDisplay:10.37,2013-02-12 04:38:00,
2013-02-11 22:43:00,23.2,13.5,29.98,WSW,248,5.6,6.9,66,0.00,CLR,,0.06,WeatherDisplay:10.37,2013-02-12 04:43:00,
2013-02-11 22:48:00,23.2,13.5,29.98,WNW,292,9.4,10.4,66,0.00,CLR,,0.06,WeatherDisplay:10.37,2013-02-12 04:48:00,
2013-02-11 22:53:00,23.2,13.5,29.98,West,270,8.1,11.5,66,0.00,CLR,,0.06,WeatherDisplay:10.37,2013-02-12 04:53:00,
2013-02-11 22:58:00,23.2,13.8,29.95,WNW,292,6.4,9.2,67,0.00,CLR,,0.06,WeatherDisplay:10.37,2013-02-12 04:58:00,
2013-02-11 23:00:00,23.2,13.8,29.95,WNW,292,4.0,5.8,67,0.00,CLR,,0.06,WeatherDisplay:10.37,2013-02-12 05:00:00,
2013-02-11 23:05:00,23.0,14.0,29.95,WNW,292,2.9,5.8,68,0.00,CLR,,0.06,WeatherDisplay:10.37,2013-02-12 05:05:00,
2013-02-11 23:10:00,23.0,14.3,29.95,WNW,292,3.1,5.8,69,0.00,CLR,,0.06,WeatherDisplay:10.37,2013-02-12 05:10:00,
2013-02-11 23:15:00,22.8,14.2,29.95,West,270,3.3,5.8,69,0.00,CLR,,0.06,WeatherDisplay:10.37,2013-02-12 05:15:00,
2013-02-11 23:20:00,22.6,14.3,29.95,WNW,292,5.4,5.8,70,0.00,CLR,,0.06,WeatherDisplay:10.37,2013-02-12 05:20:00,
2013-02-11 23:25:00,22.5,14.1,29.95,WNW,292,6.7,10.0,70,0.00,CLR,,0.06,WeatherDisplay:10.37,2013-02-12 05:25:00,
2013-02-11 23:30:00,22.3,13.3,29.95,WNW,292,7.1,11.5,68,0.00,CLR,,0.06,WeatherDisplay:10.37,2013-02-12 05:30:00,
2013-02-11 23:35:00,22.1,13.5,29.95,NW,315,4.7,5.8,69,0.00,CLR,,0.06,WeatherDisplay:10.37,2013-02-12 05:35:00,
2013-02-11 23:40:00,21.9,13.0,29.95,WNW,292,6.9,8.1,68,0.00,CLR,,0.06,WeatherDisplay:10.37,2013-02-12 05:40:00,
2013-02-11 23:45:00,21.9,13.0,29.95,WNW,292,5.6,8.1,68,0.00,CLR,,0.06,WeatherDisplay:10.37,2013-02-12 05:45:00,
2013-02-11 23:50:00,21.9,13.0,29.95,West,270,6.4,10.4,68,0.00,CLR,,0.06,WeatherDisplay:10.37,2013-02-12 05:50:00,
2013-02-11 23:55:00,21.9,13.0,29.95,SSW,202,4.7,6.9,68,0.00,CLR,,0.06,WeatherDisplay:10.37,2013-02-12 05:55:00,